Weather reports worldwide

Advertisment
Dunkerque, France (7010): temperature & dewpoint: 16.02.2019 22:00:00 - 22.02.2019 22:00:00 (CET)Dunkerque, France (7010): wind speed & gusts: 16.02.2019 22:00:00 - 22.02.2019 22:00:00 (CET)Dunkerque, France (7010): wind direction: 16.02.2019 22:00:00 - 22.02.2019 22:00:00 (CET)Dunkerque, France (7010): reduced air pressure: 16.02.2019 22:00:00 - 22.02.2019 22:00:00 (CET)Dunkerque, France (7010): visibility: 16.02.2019 22:00:00 - 22.02.2019 22:00:00 (CET)Dunkerque, France (7010): precipitation: 16.02.2019 22:00:00 - 22.02.2019 22:00:00 (CET)
Date & Time tt [°C] td [°C] ff [km/h] ff [kn] fx [km/h] fx [kn] dd ppp [hPa] vv [km] rr [mm]
22.02.2019 22:00:00 7,6 7,0 14 8 18 10 E 1036,9 - 0,0
22.02.2019 21:00:00 7,7 7,1 12 6 19 10 ENE 1036,6 - 0,0
22.02.2019 20:00:00 7,7 6,9 9 5 14 8 ENE 1036,8 - 0,0
22.02.2019 19:00:00 8,8 7,6 5 3 10 5 ENE 1036,6 15 0,0
22.02.2019 18:00:00 10,0 8,3 9 5 17 9 SE 1036,6 - 0,0
22.02.2019 17:00:00 10,2 8,3 13 7 20 11 SE 1036,5 - 0,0
22.02.2019 16:00:00 10,9 8,3 11 6 21 12 SE 1036,5 6 0,0
22.02.2019 15:00:00 9,6 8,0 15 8 22 12 SSE 1036,3 - 0,0
22.02.2019 14:00:00 8,4 8,0 15 8 22 12 SE 1036,9 - 0,0
22.02.2019 13:00:00 7,9 7,5 7 4 14 7 ESE 1037,1 0,2 0,0
22.02.2019 12:00:00 7,6 7,3 8 4 22 12 SE 1037,1 - 0,0
22.02.2019 11:00:00 7,2 6,9 18 10 24 13 SE 1036,1 - 0,0
22.02.2019 10:00:00 7,2 6,9 8 4 13 7 SE 1035,9 - 0,0
22.02.2019 09:00:00 7,1 6,7 4 2 13 7 S 1035,7 - 0,0
22.02.2019 08:00:00 7,2 6,8 4 2 8 4 WSW 1035,3 - 0,0
22.02.2019 07:00:00 7,4 7,0 5 3 8 4 SW 1034,8 7 0,0
22.02.2019 06:00:00 7,5 7,1 5 3 7 4 SSW 1034,1 - 0,0
22.02.2019 05:00:00 7,7 7,3 4 2 12 7 SSW 1034,0 - 0,0
22.02.2019 04:00:00 7,8 7,4 4 2 22 12 WSW 1033,6 7 0,0
22.02.2019 03:00:00 7,6 7,0 16 8 23 12 W 1033,4 - 0,0
22.02.2019 02:00:00 7,8 7,2 13 7 28 15 W 1032,9 - 0,0
22.02.2019 01:00:00 7,9 7,3 18 10 29 16 W 1032,9 7 0,0
22.02.2019 00:00:00 7,9 7,3 18 10 27 15 W 1032,4 - 0,0
21.02.2019 23:00:00 7,9 7,1 12 6 23 12 W 1032,1 - 0,0
21.02.2019 22:00:00 8,2 7,3 11 6 26 14 WSW 1031,1 7 0,0
21.02.2019 21:00:00 8,4 7,3 17 9 32 18 SW 1030,6 - 0,0
21.02.2019 20:00:00 8,5 7,3 14 8 29 16 SW 1030,4 - 0,0
21.02.2019 19:00:00 8,6 7,2 16 9 31 17 SW 1029,9 - 0,0
21.02.2019 18:00:00 8,9 7,3 13 7 29 15 SSW 1029,2 - 0,0
21.02.2019 17:00:00 9,3 7,6 17 9 38 20 SW 1028,7 - 0,0
21.02.2019 16:00:00 11,1 8,0 19 10 37 20 WSW 1028,1 12 0,0
21.02.2019 15:00:00 10,3 7,7 24 13 40 21 W 1027,6 - 0,0
21.02.2019 14:00:00 13,4 7,8 23 12 42 23 WSW 1027,4 - 0,0
21.02.2019 13:00:00 10,6 7,8 16 9 35 19 W 1027,8 12 0,0
21.02.2019 12:00:00 11,2 7,7 15 8 23 12 SSW 1027,7 - 0,0
21.02.2019 11:00:00 9,3 6,7 9 5 18 10 S 1027,7 - 0,0
21.02.2019 10:00:00 7,6 5,9 13 7 22 12 SSW 1026,8 12 0,0
21.02.2019 09:00:00 6,2 5,0 15 8 22 12 SSW 1026,0 - 0,0
21.02.2019 08:00:00 6,0 4,6 16 9 22 12 SSW 1025,4 - 0,0
21.02.2019 07:00:00 6,0 4,6 13 7 18 10 S 1025,1 - 0,0
21.02.2019 06:00:00 6,1 4,7 13 7 18 10 S 1024,9 - 0,0
21.02.2019 05:00:00 6,2 4,8 14 8 20 11 SSW 1024,9 - 0,0
21.02.2019 04:00:00 6,2 4,7 14 8 18 10 SSW 1024,9 20 0,0
21.02.2019 03:00:00 6,2 4,4 14 8 18 10 S 1025,2 - 0,0
21.02.2019 02:00:00 6,4 4,2 12 7 16 9 SSW 1025,0 - 0,0
21.02.2019 01:00:00 6,8 4,3 11 6 19 10 S 1024,7 20 0,0
21.02.2019 00:00:00 7,1 4,2 14 7 19 11 SSW 1024,4 - 0,0
20.02.2019 23:00:00 7,0 4,1 14 8 19 10 SSW 1024,1 - 0,0
20.02.2019 22:00:00 7,4 3,8 13 7 18 10 SSW 1023,7 20 0,0
20.02.2019 21:00:00 8,0 3,8 11 6 21 11 SSW 1023,8 - 0,0
20.02.2019 20:00:00 8,6 3,8 13 7 22 12 SSW 1023,7 - 0,0
20.02.2019 19:00:00 9,1 4,1 13 7 25 13 SSW 1023,3 - 0,0
20.02.2019 18:00:00 10,4 3,7 17 9 34 18 SW 1022,8 - 0,0
20.02.2019 17:00:00 11,5 3,5 22 12 40 21 SW 1022,6 - 0,0
20.02.2019 16:00:00 11,6 4,3 22 12 39 21 SW 1022,5 - 0,0
20.02.2019 15:00:00 11,7 4,4 22 12 42 23 SW 1022,7 - 0,0
20.02.2019 14:00:00 11,9 2,1 22 12 39 21 SW 1022,5 - 0,0
20.02.2019 13:00:00 11,5 2,5 22 12 35 19 SW 1022,5 - 0,0
20.02.2019 12:00:00 10,5 3,5 21 11 31 17 SW 1022,8 - 0,0
20.02.2019 11:00:00 8,8 4,2 16 9 29 16 SSW 1022,5 - 0,0
20.02.2019 10:00:00 6,4 3,9 17 9 23 12 SSW 1022,3 - 0,0
20.02.2019 09:00:00 4,7 3,2 16 8 20 11 SSW 1021,8 - 0,0
20.02.2019 08:00:00 4,4 3,2 13 7 18 10 S 1021,0 - 0,0
20.02.2019 07:00:00 4,3 3,3 13 7 18 10 SSW 1020,7 16 0,0
20.02.2019 06:00:00 4,5 3,2 14 8 20 11 S 1020,7 - 0,0
20.02.2019 05:00:00 4,6 3,1 15 8 21 11 SSW 1020,5 - 0,0
20.02.2019 04:00:00 5,1 3,4 13 7 17 9 SSW 1020,6 16 0,0
20.02.2019 03:00:00 4,8 3,3 13 7 18 10 SSW 1021,2 - 0,0
20.02.2019 02:00:00 4,7 3,2 13 7 18 10 SSW 1021,4 - 0,0
20.02.2019 01:00:00 4,7 3,0 15 8 18 10 S 1021,4 - 0,0
20.02.2019 00:00:00 5,4 3,2 14 7 19 11 S 1021,3 - 0,0
19.02.2019 23:00:00 6,1 3,4 13 7 21 11 S 1021,5 - 0,0
19.02.2019 22:00:00 6,7 4,0 15 8 25 14 SSW 1021,4 - 0,0
19.02.2019 21:00:00 6,6 4,4 16 8 26 14 SSW 1021,1 - 0,0
19.02.2019 20:00:00 6,9 4,6 15 8 24 13 SW 1021,0 - 0,0
19.02.2019 19:00:00 7,7 4,5 14 8 29 16 SSW 1020,9 - 0,0
19.02.2019 18:00:00 8,8 4,4 20 11 40 22 SW 1020,5 - 0,0
19.02.2019 17:00:00 9,6 5,0 21 11 41 22 SW 1020,6 - 0,0
19.02.2019 16:00:00 10,3 5,1 23 12 46 25 SW 1020,6 12 0,0
19.02.2019 15:00:00 9,4 5,4 24 13 37 20 W 1020,7 - 0,0
19.02.2019 14:00:00 8,7 5,3 23 13 38 21 W 1020,8 - 0,0
19.02.2019 13:00:00 9,8 6,3 24 13 37 20 W 1020,8 12 0,0
19.02.2019 12:00:00 9,7 5,5 22 12 38 20 W 1020,8 - 0,0
19.02.2019 11:00:00 9,2 5,6 23 12 38 21 W 1020,6 - 0,0
19.02.2019 10:00:00 8,5 5,1 27 14 41 22 W 1020,3 10 0,0
19.02.2019 09:00:00 7,7 5,0 13 7 31 17 SW 1019,8 - 0,0
19.02.2019 08:00:00 6,4 4,7 16 8 42 23 SW 1019,1 - 0,0
19.02.2019 07:00:00 7,5 4,8 22 12 45 24 WSW 1018,3 10 0,0
19.02.2019 06:00:00 7,2 4,8 25 13 40 21 W 1018,2 - 0,0
19.02.2019 05:00:00 7,6 5,7 24 13 42 23 W 1017,9 - 0,0
19.02.2019 04:00:00 8,0 6,6 13 7 41 22 WSW 1017,8 10 0,0
19.02.2019 03:00:00 8,5 6,6 13 7 38 21 SW 1017,4 - 0,0
19.02.2019 02:00:00 8,7 6,8 25 14 39 21 W 1017,6 - 0,0
19.02.2019 01:00:00 8,8 6,8 15 8 34 18 SW 1017,3 - 0,0
19.02.2019 00:00:00 8,8 6,4 16 9 39 21 SW 1017,0 - 0,0
18.02.2019 23:00:00 8,9 6,2 18 10 31 17 SSW 1017,1 - 0,0
18.02.2019 22:00:00 8,6 5,5 19 10 29 16 W 1016,8 10 0,0
18.02.2019 21:00:00 8,5 6,5 21 11 41 22 W 1016,4 - 0,0
18.02.2019 20:00:00 10,1 7,2 15 8 27 15 W 1015,8 - 0,0
18.02.2019 19:00:00 10,1 7,3 13 7 23 12 SSW 1015,5 12 0,0
18.02.2019 18:00:00 9,3 7,6 17 9 29 15 W 1015,3 - 0,0
18.02.2019 17:00:00 9,4 7,5 16 9 27 15 W 1015,1 - 0,0
18.02.2019 16:00:00 9,8 7,4 19 10 33 18 W 1015,4 12 0,0
18.02.2019 15:00:00 9,9 6,8 13 7 26 14 NW 1015,5 - 0,0
18.02.2019 14:00:00 13,3 7,7 14 8 24 13 SSW 1015,5 - 0,0
18.02.2019 13:00:00 12,8 7,7 14 8 19 10 S 1016,2 - 0,0
18.02.2019 12:00:00 11,5 6,8 11 6 20 11 S 1016,9 - 0,0
18.02.2019 11:00:00 10,1 6,1 13 7 18 10 S 1017,3 - 0,0
18.02.2019 10:00:00 8,0 5,3 11 6 18 10 S 1017,6 8 0,0
18.02.2019 09:00:00 7,0 4,3 15 8 18 10 S 1017,7 - 0,0
18.02.2019 08:00:00 6,6 3,9 14 7 21 11 S 1017,3 - 0,0
18.02.2019 07:00:00 6,9 4,4 14 8 18 10 S 1017,1 13 0,0
18.02.2019 06:00:00 6,9 3,9 13 7 16 9 S 1017,3 - 0,0
18.02.2019 05:00:00 7,9 4,1 9 5 15 8 S 1017,6 - 0,0
18.02.2019 04:00:00 7,6 3,6 10 5 16 9 SSW 1017,9 12 0,0
18.02.2019 03:00:00 7,9 3,4 14 7 18 10 SSW 1018,1 - 0,0
18.02.2019 02:00:00 8,4 3,4 14 8 19 11 SSW 1018,2 - 0,0
18.02.2019 01:00:00 8,7 3,5 14 8 19 10 SSW 1018,0 - 0,0
18.02.2019 00:00:00 8,7 3,7 10 6 14 8 S 1018,0 - 0,0
17.02.2019 23:00:00 8,6 4,0 10 5 16 9 S 1018,2 - 0,0
17.02.2019 22:00:00 9,9 4,3 9 5 14 8 S 1018,4 10 0,0
17.02.2019 21:00:00 9,8 4,4 9 5 15 8 S 1018,3 - 0,0
17.02.2019 20:00:00 11,4 4,6 9 5 19 11 SSW 1018,1 - 0,0
17.02.2019 19:00:00 12,3 4,8 12 6 21 11 SW 1018,0 10 0,0
17.02.2019 18:00:00 13,2 4,3 14 8 27 15 SW 1017,4 - 0,0
17.02.2019 17:00:00 14,5 3,6 17 9 31 17 SW 1017,0 - 0,0
17.02.2019 16:00:00 15,3 3,7 15 8 31 17 S 1017,0 - 0,0
17.02.2019 15:00:00 15,1 2,6 20 11 35 19 S 1017,0 - 0,0
17.02.2019 14:00:00 15,3 3,4 21 11 35 19 S 1016,9 - 0,0
17.02.2019 13:00:00 14,3 3,7 21 11 34 18 S 1017,3 - 0,0
17.02.2019 12:00:00 11,4 2,7 20 11 36 19 S 1017,8 - 0,0
17.02.2019 11:00:00 9,3 2,6 19 10 27 14 S 1018,1 - 0,0
17.02.2019 10:00:00 7,5 2,6 17 9 27 15 S 1018,6 8 0,0
17.02.2019 09:00:00 6,6 2,3 15 8 26 14 SSE 1018,8 - 0,0
17.02.2019 08:00:00 5,2 2,2 15 8 23 12 S 1019,2 - 0,0
17.02.2019 07:00:00 4,8 2,2 8 4 21 11 S 1019,4 10 0,0
17.02.2019 06:00:00 4,8 2,5 11 6 21 11 S 1019,7 - 0,0
17.02.2019 05:00:00 5,4 2,7 14 8 20 11 S 1020,2 - 0,0
17.02.2019 04:00:00 6,0 3,5 12 6 21 11 SSE 1020,9 - 0,0
17.02.2019 03:00:00 6,4 3,5 13 7 19 10 S 1021,4 - 0,0
17.02.2019 02:00:00 6,3 4,1 10 5 17 9 S 1021,9 - 0,0
17.02.2019 01:00:00 6,7 4,7 11 6 15 8 S 1022,4 - 0,0
17.02.2019 00:00:00 7,4 5,2 10 5 16 9 S 1023,1 - 0,0
16.02.2019 23:00:00 8,0 5,6 11 6 16 9 S 1023,3 - 0,0
16.02.2019 22:00:00 7,7 5,5 6 3 10 5 SSE 1023,7 10 0,0

tt = temperature
td = dewpoint
ff = wind speed
fx = gusts
dd = wind direction
ppp = reduced air pressure
vv = visibility
rr = precipitation

Next stations